DW5251 Weather Reports


Display with metric or nautical units.
time (UTC)temp
F
wind
direction
speed
MPH
gust
MPH
rain 1hr
in
rain 24hr
in
rain mn
in
humidity
%
barometer
mb
20181114213058 37 0 0.0 2.0 0.00 0.00 0.00 87 1029.3
20181114212557 37 0 1.0 2.0 0.00 0.00 0.00 87 1029.3
20181114212057 37 0 1.0 2.0 0.00 0.00 0.00 86 1029.3
20181114211559 37 0 0.0 2.0 0.00 0.00 0.00 86 1029.5
20181114210101 38 0 2.0 2.0 0.00 0.00 0.00 88 1029.4
20181114204057 39 0 1.0 2.0 0.00 0.00 0.00 87 1029.3
20181114203558 39 0 1.0 2.0 0.00 0.00 0.00 87 1029.3
20181114203058 39 0 0.0 2.0 0.00 0.00 0.00 87 1029.3
20181114202558 39 0 0.0 2.0 0.00 0.00 0.00 87 1029.3
20181114201058 39 0 1.0 2.0 0.00 0.00 0.00 87 1029.3
20181114200557 39 0 1.0 2.0 0.00 0.00 0.00 86 1029.4
20181114195558 39 0 1.0 2.0 0.00 0.00 0.00 86 1029.5
20181114195057 39 0 2.0 3.0 0.00 0.00 0.00 86 1029.5
20181114194559 39 0 2.0 3.0 0.00 0.00 0.00 87 1029.5
20181114193558 39 0 2.0 3.0 0.00 0.00 0.00 86 1029.3
20181114193058 39 0 2.0 3.0 0.00 0.00 0.00 86 1029.2
20181114191558 40 0 2.0 2.0 0.00 0.00 0.00 86 1029.1
20181114190557 39 0 0.0 1.0 0.00 0.00 0.00 85 1029.2
20181114190100 40 0 0.0 1.0 0.00 0.00 0.00 85 1029.2
20181114185557 40 0 0.0 2.0 0.00 0.00 0.00 85 1029.1
20181114184558 40 0 2.0 2.0 0.00 0.00 0.00 85 1029.1
20181114184058 40 0 0.0 0.0 0.00 0.00 0.00 84 1029.0
20181114183058 41 0 0.0 1.0 0.00 0.00 0.00 83 1029.1
20181114182557 41 0 0.0 1.0 0.00 0.00 0.00 83 1029.0
20181114182058 41 0 1.0 1.0 0.00 0.00 0.00 83 1029.0
20181114181558 41 0 1.0 1.0 0.00 0.00 0.00 83 1028.9
20181114181057 41 0 0.0 1.0 0.00 0.00 0.00 83 1028.9
20181114180558 41 0 0.0 1.0 0.00 0.00 0.00 82 1029.0
20181114180101 41 0 0.0 2.0 0.00 0.00 0.00 81 1028.9
20181114175558 42 0 1.0 2.0 0.00 0.00 0.00 81 1028.8
20181114174558 42 0 0.0 2.0 0.00 0.00 0.00 80 1029.0
20181114174058 42 0 1.0 2.0 0.00 0.00 0.00 80 1028.9
20181114173558 42 0 0.0 2.0 0.00 0.00 0.00 80 1029.0
20181114173058 43 0 0.0 2.0 0.00 0.00 0.00 79 1029.0
20181114172557 43 0 1.0 2.0 0.00 0.00 0.00 79 1029.0
20181114172057 43 0 0.0 1.0 0.00 0.00 0.00 79 1029.0
20181114171559 43 0 0.0 1.0 0.00 0.00 0.00 78 1029.1
20181114170557 44 0 0.0 0.0 0.00 0.00 0.00 77 1029.1
20181114170100 44 0 0.0 1.0 0.00 0.00 0.00 76 1029.1
20181114165557 45 0 0.0 2.0 0.00 0.00 0.00 75 1029.0
20181114165057 45 0 1.0 2.0 0.00 0.00 0.00 74 1029.1
20181114164558 46 0 1.0 2.0 0.00 0.00 0.00 74 1029.1
20181114164058 46 0 2.0 2.0 0.00 0.00 0.00 73 1029.1
20181114163058 47 0 1.0 6.0 0.00 0.00 0.00 72 1029.1
20181114162601 47 0 2.0 6.0 0.00 0.00 0.00 71 1029.1
20181114160558 48 0 3.0 5.0 0.00 0.00 0.00 70 1029.2
20181114160100 49 0 3.0 5.0 0.00 0.00 0.00 69 1029.2
20181114155558 49 0 2.0 5.0 0.00 0.00 0.00 68 1029.2
20181114155058 49 0 3.0 5.0 0.00 0.00 0.00 68 1029.3
20181114154559 49 0 3.0 6.0 0.00 0.00 0.00 68 1029.3
20181114154058 50 0 4.0 6.0 0.00 0.00 0.00 67 1029.3
20181114153558 50 0 3.0 6.0 0.00 0.00 0.00 67 1029.3
20181114153058 50 0 4.0 9.0 0.00 0.00 0.00 67 1029.3
20181114151558 51 0 3.0 8.0 0.00 0.00 0.00 65 1029.4
20181114151058 51 0 3.0 8.0 0.00 0.00 0.00 64 1029.4
20181114150558 52 0 4.0 9.0 0.00 0.00 0.00 64 1029.4
20181114150100 52 0 3.0 9.0 0.00 0.00 0.00 63 1029.4
20181114145558 52 0 4.0 9.0 0.00 0.00 0.00 63 1029.3
20181114144559 52 0 3.0 10.0 0.00 0.00 0.00 62 1029.4
20181114144058 53 0 4.0 10.0 0.00 0.00 0.00 62 1029.4
20181114143558 53 0 3.0 8.0 0.00 0.00 0.00 62 1029.4
20181114142558 53 0 3.0 8.0 0.00 0.00 0.00 61 1029.5
20181114142058 53 0 3.0 8.0 0.00 0.00 0.00 61 1029.4
20181114141559 53 0 4.0 7.0 0.00 0.00 0.00 61 1029.4
20181114141058 54 0 3.0 7.0 0.00 0.00 0.00 60 1029.4
20181114140101 54 0 3.0 7.0 0.00 0.00 0.00 60 1029.5
20181114134058 55 0 3.0 9.0 0.00 0.00 0.00 58 1029.5
20181114133059 55 0 3.0 9.0 0.00 0.00 0.00 58 1029.6
20181114132058 55 0 5.0 9.0 0.00 0.00 0.00 57 1029.6
20181114131558 55 0 6.0 8.0 0.00 0.00 0.00 57 1029.6
20181114131058 55 0 5.0 10.0 0.00 0.00 0.00 57 1029.7
20181114130558 55 0 5.0 12.0 0.00 0.00 0.00 57 1029.7
20181114130101 56 0 5.0 12.0 0.00 0.00 0.00 57 1029.8
20181114125558 55 0 4.0 10.0 0.00 0.00 0.00 57 1029.7
20181114125058 55 0 5.0 8.0 0.00 0.00 0.00 58 1029.8
20181114124558 56 0 4.0 8.0 0.00 0.00 0.00 59 1029.7
20181114124058 56 0 3.0 6.0 0.00 0.00 0.00 59 1029.8
20181114123558 56 0 2.0 8.0 0.00 0.00 0.00 59 1029.9
20181114123059 56 0 3.0 8.0 0.00 0.00 0.00 60 1030.0
20181114122558 55 0 3.0 6.0 0.00 0.00 0.00 60 1030.0
20181114122058 55 0 3.0 6.0 0.00 0.00 0.00 61 1030.0
20181114121559 55 0 2.0 10.0 0.00 0.00 0.00 61 1030.1
20181114121058 55 0 3.0 10.0 0.00 0.00 0.00 61 1030.1
20181114120558 55 0 4.0 9.0 0.00 0.00 0.00 60 1030.2
20181114115558 56 0 5.0 9.0 0.00 0.00 0.00 60 1030.4
20181114115058 56 0 4.0 8.0 0.00 0.00 0.00 61 1030.5
20181114114558 55 0 3.0 8.0 0.00 0.00 0.00 60 1030.4
20181114113558 55 0 4.0 8.0 0.00 0.00 0.00 61 1030.4
20181114113059 55 0 4.0 8.0 0.00 0.00 0.00 63 1030.5
20181114111058 55 0 2.0 7.0 0.00 0.00 0.00 62 1030.7
20181114110100 56 0 5.0 8.0 0.00 0.00 0.00 63 1030.8
20181114105058 55 0 3.0 8.0 0.00 0.00 0.00 64 1030.9
20181114104559 55 0 3.0 9.0 0.00 0.00 0.00 64 1031.0
20181114104059 55 0 3.0 9.0 0.00 0.00 0.00 64 1031.0
20181114103558 55 0 5.0 8.0 0.00 0.00 0.00 63 1031.1
20181114103058 55 0 3.0 8.0 0.00 0.00 0.00 64 1031.2
20181114102558 55 0 5.0 8.0 0.00 0.00 0.00 65 1031.3
20181114102058 54 0 3.0 8.0 0.00 0.00 0.00 66 1031.3
20181114101558 54 0 3.0 7.0 0.00 0.00 0.00 66 1031.3
20181114101058 54 0 3.0 7.0 0.00 0.00 0.00 66 1031.4
20181114100558 54 0 3.0 7.0 0.00 0.00 0.00 66 1031.4
20181114094600 54 0 3.0 9.0 0.00 0.00 0.00 68 1031.4
20181114094058 54 0 4.0 9.0 0.00 0.00 0.00 68 1031.4
20181114093059 53 0 3.0 9.0 0.00 0.00 0.00 68 1031.6
20181114092600 53 0 5.0 9.0 0.00 0.00 0.00 69 1031.5
20181114092100 53 0 6.0 9.0 0.00 0.00 0.00 68 1031.5
20181114091600 53 0 5.0 8.0 0.00 0.00 0.00 69 1031.5
20181114091059 52 0 5.0 9.0 0.00 0.00 0.00 70 1031.5
20181114090558 52 0 5.0 10.0 0.00 0.00 0.00 70 1031.4
20181114090102 52 0 5.0 10.0 0.00 0.00 0.00 70 1031.4
20181114085559 51 0 7.0 10.0 0.00 0.00 0.00 70 1031.4
20181114085100 51 0 7.0 10.0 0.00 0.00 0.00 70 1031.3
20181114084600 52 0 6.0 10.0 0.00 0.00 0.00 71 1031.4
20181114083600 52 0 6.0 12.0 0.00 0.00 0.00 71 1031.4
20181114083100 51 0 7.0 12.0 0.00 0.00 0.00 71 1031.4
20181114082600 51 0 7.0 12.0 0.00 0.00 0.00 72 1031.4
20181114081559 51 0 6.0 10.0 0.00 0.00 0.00 72 1031.4
20181114081059 51 0 6.0 10.0 0.00 0.00 0.00 72 1031.4
20181114080558 51 0 5.0 9.0 0.00 0.00 0.00 73 1031.4
20181114080101 51 0 5.0 9.0 0.00 0.00 0.00 73 1031.4
20181114074559 50 0 3.0 6.0 0.00 0.00 0.00 74 1031.4
20181114072558 49 0 6.0 9.0 0.00 0.00 0.00 75 1031.3
20181114072058 49 0 5.0 8.0 0.00 0.00 0.00 75 1031.3
20181114070559 48 0 4.0 7.0 0.00 0.00 0.00 76 1031.1
20181114070102 48 0 3.0 7.0 0.00 0.00 0.00 77 1031.0
20181114065559 47 0 3.0 7.0 0.00 0.00 0.00 77 1031.0
20181114065058 47 0 6.0 7.0 0.00 0.00 0.00 77 1030.8
20181114064559 47 0 3.0 5.0 0.00 0.00 0.00 77 1030.8
20181114064058 47 0 2.0 6.0 0.00 0.00 0.00 77 1030.9
20181114063059 46 0 2.0 5.0 0.00 0.00 0.00 79 1030.6
20181114062559 46 0 3.0 6.0 0.00 0.00 0.00 80 1030.6
20181114062059 45 0 2.0 6.0 0.00 0.00 0.00 81 1030.5
20181114054559 44 0 3.0 7.0 0.00 0.00 0.00 82 1030.2
20181114054058 44 0 3.0 6.0 0.00 0.00 0.00 82 1030.2
20181114053558 44 0 2.0 7.0 0.00 0.00 0.00 82 1030.2
20181114053059 44 0 2.0 7.0 0.00 0.00 0.00 82 1030.2
20181114052559 44 0 3.0 5.0 0.00 0.00 0.00 82 1030.1
20181114052059 44 0 2.0 5.0 0.00 0.00 0.00 82 1030.2
20181114051600 44 0 2.0 5.0 0.00 0.00 0.00 82 1030.1
20181114050559 44 0 2.0 5.0 0.00 0.00 0.00 81 1030.0
20181114050102 44 0 2.0 6.0 0.00 0.00 0.00 81 1030.0
20181114045559 44 0 2.0 6.0 0.00 0.00 0.00 81 1029.9
20181114045059 45 0 3.0 6.0 0.00 0.00 0.00 80 1029.9
20181114044600 45 0 3.0 8.0 0.00 0.00 0.00 80 1029.9
20181114044058 45 0 4.0 8.0 0.00 0.00 0.00 80 1029.9
20181114043100 46 0 3.0 8.0 0.00 0.00 0.00 79 1029.8
20181114042059 46 0 4.0 8.0 0.00 0.00 0.00 78 1029.8
20181114041559 46 0 5.0 9.0 0.00 0.00 0.00 78 1029.9
20181114040101 46 0 3.0 8.0 0.00 0.00 0.00 78 1029.8
20181114035558 47 0 5.0 9.0 0.00 0.00 0.00 78 1029.8
20181114034059 46 0 3.0 8.0 0.00 0.00 0.00 80 1030.0
20181114033602 46 0 2.0 7.0 0.00 0.00 0.00 80 1030.0
20181114033059 46 0 3.0 7.0 0.00 0.00 0.00 79 1029.9
20181114032058 46 0 3.0 7.0 0.00 0.00 0.00 80 1029.9
20181114031600 46 0 2.0 6.0 0.00 0.00 0.00 80 1029.9
20181114025559 46 0 2.0 6.0 0.00 0.00 0.00 79 1029.9
20181114025059 47 0 3.0 8.0 0.00 0.00 0.00 79 1029.8
20181114024559 47 0 3.0 8.0 0.00 0.00 0.00 78 1029.8
20181114024058 47 0 3.0 7.0 0.00 0.00 0.00 78 1029.8
20181114023558 47 0 3.0 8.0 0.00 0.00 0.00 78 1029.8
20181114023100 48 0 5.0 9.0 0.00 0.00 0.00 77 1029.8
20181114022559 48 0 3.0 9.0 0.00 0.00 0.00 76 1029.8
20181114022059 48 0 3.0 8.0 0.00 0.00 0.00 76 1029.8
20181114021600 49 0 5.0 9.0 0.00 0.00 0.00 76 1029.8
20181114015559 48 0 4.0 12.0 0.00 0.00 0.00 77 1029.8
20181114015059 48 0 5.0 12.0 0.00 0.00 0.00 77 1029.7
20181114014059 48 0 4.0 9.0 0.00 0.00 0.00 78 1029.7
20181114013559 48 0 5.0 9.0 0.00 0.00 0.00 78 1029.7
20181114012559 48 0 3.0 9.0 0.00 0.00 0.00 78 1029.6
20181114012059 48 0 5.0 9.0 0.00 0.00 0.00 78 1029.7
20181114011559 48 0 3.0 8.0 0.00 0.00 0.00 78 1029.7
20181114011059 48 0 5.0 8.0 0.00 0.00 0.00 78 1029.8
20181114010558 49 0 4.0 9.0 0.00 0.00 0.00 78 1029.7
20181114004559 48 0 5.0 9.0 0.00 0.00 0.00 78 1029.5
20181114004059 48 0 4.0 8.0 0.00 0.00 0.00 79 1029.6
20181114002100 49 0 3.0 9.0 0.00 0.00 0.00 77 1029.6
20181114001600 49 0 5.0 8.0 0.00 0.00 0.00 78 1029.5
20181114001059 49 0 3.0 7.0 0.00 0.00 0.00 78 1029.6
20181114000600 49 0 4.0 7.0 0.00 0.00 0.00 78 1029.4
20181114000102 49 0 4.0 7.0 0.00 0.00 0.00 78 1029.5
20181113235059 49 0 4.0 9.0 0.00 0.00 0.00 77 1029.5
20181113234601 50 0 5.0 10.0 0.00 0.00 0.00 77 1029.5
20181113234059 50 0 4.0 10.0 0.00 0.00 0.00 77 1029.5
20181113233100 50 0 5.0 9.0 0.00 0.00 0.00 76 1029.5
20181113232559 50 0 3.0 7.0 0.00 0.00 0.00 77 1029.5
20181113232059 50 0 4.0 10.0 0.00 0.00 0.00 76 1029.4
20181113231600 50 0 5.0 10.0 0.00 0.00 0.00 76 1029.4
20181113231103 50 0 4.0 7.0 0.00 0.00 0.00 77 1029.4
20181113230559 50 0 3.0 7.0 0.00 0.00 0.00 76 1029.5
20181113230102 51 0 3.0 7.0 0.00 0.00 0.00 76 1029.4
20181113225059 52 0 3.0 12.0 0.00 0.00 0.00 74 1029.3
20181113224600 52 0 6.0 12.0 0.00 0.00 0.00 73 1029.2
20181113224059 52 0 6.0 12.0 0.00 0.00 0.00 74 1029.2
20181113223059 51 0 3.0 8.0 0.00 0.00 0.00 75 1029.2
20181113222559 51 0 3.0 8.0 0.00 0.00 0.00 76 1029.2
20181113222100 52 0 3.0 8.0 0.00 0.00 0.00 75 1029.2
20181113221601 52 0 2.0 8.0 0.00 0.00 0.00 76 1029.2
20181113220102 53 0 2.0 8.0 0.00 0.00 0.00 74 1029.0
20181113215601 53 0 5.0 8.0 0.00 0.00 0.00 74 1029.0
20181113214601 53 0 4.0 10.0 0.00 0.00 0.00 75 1028.9
20181113214101 52 0 5.0 10.0 0.00 0.00 0.00 76 1028.9
20181113213559 52 0 5.0 9.0 0.00 0.00 0.00 76 1028.9